Stations météo

réclame
Mon MeteoGroup
Santiago de Compostela/Labacolla, Espagne (8042): Température de l'air & dewpoint: 19.04.2018 14:00:00 - 25.04.2018 14:00:00 (CEST)Santiago de Compostela/Labacolla, Espagne (8042): Vitesse du vent: 19.04.2018 14:00:00 - 25.04.2018 14:00:00 (CEST)Santiago de Compostela/Labacolla, Espagne (8042): Direction du vent: 19.04.2018 14:00:00 - 25.04.2018 14:00:00 (CEST)Santiago de Compostela/Labacolla, Espagne (8042): reduced air pressure: 19.04.2018 14:00:00 - 25.04.2018 14:00:00 (CEST)Santiago de Compostela/Labacolla, Espagne (8042): visibility: 19.04.2018 14:00:00 - 25.04.2018 14:00:00 (CEST)
Date & Time tt [°C] td [°C] ff [km/h] ff [knt] dd ppp [hPa] vv [km]
25.04.2018 14:00:00 - - - - - - -
25.04.2018 13:00:00 12,6 9,8 11 6 NNE 1024,5 30
25.04.2018 12:00:00 12,8 9,7 13 7 NNE 1024,4 30
25.04.2018 11:00:00 12,5 9,7 11 6 NNE 1023,8 20
25.04.2018 10:00:00 11,4 9,6 5 3 NE 1023,3 30
25.04.2018 09:00:00 9,8 9,0 11 6 NNE 1023,3 10
25.04.2018 08:00:00 9,7 8,3 8 4 NNE 1022,9 30
25.04.2018 07:00:00 9,5 8,6 11 6 N 1022,3 9
25.04.2018 06:00:00 9,9 9,0 8 4 NNE 1021,8 9
25.04.2018 05:00:00 10,3 8,9 11 6 N 1021,3 10
25.04.2018 04:00:00 10,2 9,0 11 6 NNE 1021,3 9
25.04.2018 03:00:00 10,4 9,3 5 3 NNE 1021,5 7
25.04.2018 02:00:00 10,3 9,2 8 4 ENE 1021,4 10
25.04.2018 01:00:00 10,2 9,1 13 7 N 1021,5 9
25.04.2018 00:00:00 10,8 9,1 13 7 N 1021,6 13
24.04.2018 23:00:00 11,7 9,4 11 6 N 1021,5 20
24.04.2018 22:00:00 11,9 9,5 16 9 N 1020,4 16
24.04.2018 21:00:00 12,6 10,3 16 9 N 1019,5 12
24.04.2018 20:00:00 13,5 11,3 26 14 N 1019,2 20
24.04.2018 19:00:00 14,9 11,3 16 9 N 1018,6 12
24.04.2018 18:00:00 14,5 10,7 22 12 N 1018,8 14
24.04.2018 17:00:00 14,7 11,5 34 18 NNW 1018,9 15
24.04.2018 16:00:00 18,1 12,5 35 19 NNW 1018,2 18
24.04.2018 15:00:00 21,9 14,2 26 14 NNW 1017,0 25
24.04.2018 14:00:00 21,3 13,9 18 10 NNW 1017,2 20
24.04.2018 13:00:00 20,0 13,8 4 2 NNE 1017,7 27
24.04.2018 12:00:00 17,3 12,7 5 3 NNE 1018,4 15
24.04.2018 11:00:00 14,4 11,1 8 4 N 1018,8 15
24.04.2018 10:00:00 12,2 10,1 8 4 NNE 1019,3 13
24.04.2018 09:00:00 9,9 9,6 8 4 N 1019,4 7
24.04.2018 08:00:00 9,7 9,4 5 3 NNE 1018,8 0,8
24.04.2018 07:00:00 9,8 9,3 4 2 NNE 1018,6 3,0
24.04.2018 06:00:00 9,8 9,3 4 2 NNE 1018,6 2,8
24.04.2018 05:00:00 9,8 9,3 4 2 NE 1018,8 3,0
24.04.2018 04:00:00 9,8 9,2 4 2 NNE 1019,2 4,0
24.04.2018 03:00:00 10,1 9,3 13 7 N 1019,3 4,6
24.04.2018 02:00:00 10,4 9,3 4 2 NNE 1019,3 8
24.04.2018 01:00:00 10,1 9,2 13 7 N 1019,7 7
24.04.2018 00:00:00 11,6 10,2 5 3 N 1019,7 10
23.04.2018 23:00:00 11,9 10,5 13 7 N 1020,0 12
23.04.2018 22:00:00 13,3 11,2 16 9 NNW 1019,3 13
23.04.2018 21:00:00 16,7 12,2 11 6 N 1017,6 25
23.04.2018 20:00:00 19,0 13,0 9 5 N 1016,9 20
23.04.2018 19:00:00 20,1 13,4 18 10 N 1016,8 30
23.04.2018 18:00:00 21,9 14,0 18 10 N 1016,5 30
23.04.2018 17:00:00 23,3 13,8 11 6 NNE 1016,5 30
23.04.2018 16:00:00 22,0 12,1 15 8 N 1017,1 30
23.04.2018 15:00:00 21,6 13,3 11 6 NNE 1017,5 30
23.04.2018 14:00:00 19,8 13,0 11 6 N 1018,4 25
23.04.2018 13:00:00 18,3 12,4 13 7 N 1019,0 30
23.04.2018 12:00:00 15,6 11,2 11 6 N 1019,7 30
23.04.2018 11:00:00 13,3 10,7 5 3 E 1019,7 19
23.04.2018 10:00:00 10,5 9,8 8 4 ENE 1020,4 12
23.04.2018 09:00:00 10,0 9,7 5 3 NE 1020,3 8
23.04.2018 08:00:00 10,0 9,7 5 3 NNE 1019,8 0,9
23.04.2018 07:00:00 10,0 9,7 4 2 NNE 1019,6 2,6
23.04.2018 06:00:00 9,8 9,5 5 3 NNE 1019,4 -
23.04.2018 05:00:00 9,7 9,4 8 4 N 1019,5 0,9
23.04.2018 04:00:00 9,9 9,4 11 6 N 1019,7 1,5
23.04.2018 03:00:00 10,1 9,5 9 5 N 1019,4 2,5
23.04.2018 02:00:00 10,3 9,4 8 4 NNE 1019,6 10
23.04.2018 01:00:00 10,5 9,7 11 6 N 1019,7 7
23.04.2018 00:00:00 10,7 9,8 13 7 N 1019,7 6
22.04.2018 23:00:00 10,7 9,6 15 8 N 1019,4 10
22.04.2018 22:00:00 10,9 9,7 9 5 N 1018,8 9
22.04.2018 21:00:00 10,8 9,6 22 12 N 1017,9 8
22.04.2018 20:00:00 12,5 10,3 22 12 N 1017,1 8
22.04.2018 19:00:00 17,8 12,3 18 10 N 1015,3 13
22.04.2018 18:00:00 20,2 13,3 16 9 N 1014,1 11
22.04.2018 17:00:00 21,8 13,1 15 8 N 1014,0 20
22.04.2018 16:00:00 20,9 12,9 13 7 N 1014,7 18
22.04.2018 15:00:00 20,3 11,3 11 6 NW 1014,9 17
22.04.2018 14:00:00 19,6 11,0 8 4 NNW 1015,2 10
22.04.2018 13:00:00 18,2 11,4 9 5 NW 1015,9 26
22.04.2018 12:00:00 16,7 11,8 5 3 NW 1016,1 16
22.04.2018 11:00:00 15,4 11,9 4 2 S 1016,3 5
22.04.2018 10:00:00 12,0 11,5 0 0 N 1016,9 10
22.04.2018 09:00:00 10,8 10,5 5 3 SSE 1017,0 8
22.04.2018 08:00:00 10,8 10,6 5 3 SSE 1016,7 6
22.04.2018 07:00:00 10,2 9,9 5 3 SE 1016,8 -
22.04.2018 06:00:00 10,9 10,4 8 4 S 1017,1 -
22.04.2018 05:00:00 10,8 10,0 5 3 S 1017,2 12
22.04.2018 04:00:00 11,6 10,4 8 4 S 1017,7 8
22.04.2018 03:00:00 12,9 10,6 0 0 N 1017,9 15
22.04.2018 02:00:00 12,4 10,3 9 5 W 1017,8 15
22.04.2018 01:00:00 14,3 10,9 9 5 NW 1017,3 14
22.04.2018 00:00:00 15,2 11,0 2 1 WSW 1017,2 15
21.04.2018 23:00:00 15,1 11,6 5 3 SSW 1016,8 18
21.04.2018 22:00:00 15,7 11,1 0 0 N 1016,0 14
21.04.2018 21:00:00 15,8 11,1 4 2 NW 1015,6 14
21.04.2018 20:00:00 16,5 10,9 13 7 WSW 1015,8 10
21.04.2018 19:00:00 17,4 9,9 18 10 SW 1015,4 17
21.04.2018 18:00:00 20,5 10,2 22 12 SW 1014,5 12
21.04.2018 17:00:00 23,1 11,7 13 7 W 1013,8 20
21.04.2018 16:00:00 22,7 11,4 9 5 SSW 1014,0 19
21.04.2018 15:00:00 22,9 11,1 5 3 SSW 1013,8 15
21.04.2018 14:00:00 22,3 11,2 8 4 SSE 1014,1 15
21.04.2018 13:00:00 20,7 11,5 8 4 SE 1014,8 23
21.04.2018 12:00:00 19,9 11,3 8 4 SE 1014,9 25
21.04.2018 11:00:00 18,1 9,7 8 4 SE 1015,1 20
21.04.2018 10:00:00 16,4 8,8 8 4 SE 1015,2 30
21.04.2018 09:00:00 15,0 7,5 9 5 SE 1015,4 25
21.04.2018 08:00:00 13,3 7,3 4 2 E 1015,3 30
21.04.2018 07:00:00 13,7 7,7 4 2 SSE 1015,2 26
21.04.2018 06:00:00 14,0 8,2 11 6 ESE 1015,2 24
21.04.2018 05:00:00 14,0 9,0 8 4 ESE 1015,2 20
21.04.2018 04:00:00 14,9 9,9 9 5 SSE 1015,2 27
21.04.2018 03:00:00 14,6 11,0 8 4 SSE 1015,7 22
21.04.2018 02:00:00 13,2 11,9 8 4 ESE 1016,2 8
21.04.2018 01:00:00 11,2 10,6 11 6 W 1016,7 3,5
21.04.2018 00:00:00 12,1 11,0 9 5 NW 1016,8 6
20.04.2018 23:00:00 13,2 11,4 8 4 N 1016,7 10
20.04.2018 22:00:00 13,4 11,5 11 6 N 1016,4 9
20.04.2018 21:00:00 15,2 12,1 18 10 NNW 1015,9 13
20.04.2018 20:00:00 16,6 12,5 8 4 N 1015,7 20
20.04.2018 19:00:00 18,2 13,1 26 14 NNW 1014,7 16
20.04.2018 18:00:00 20,6 13,7 18 10 N 1014,4 20
20.04.2018 17:00:00 24,3 13,8 16 9 N 1014,1 30
20.04.2018 16:00:00 24,8 14,7 13 7 N 1014,4 27
20.04.2018 15:00:00 25,2 11,3 8 4 ENE 1015,0 27
20.04.2018 14:00:00 24,0 11,1 8 4 E 1016,1 30
20.04.2018 13:00:00 20,5 12,7 5 3 NE 1017,0 30
20.04.2018 12:00:00 17,8 11,2 8 4 ENE 1017,8 26
20.04.2018 11:00:00 15,6 11,1 4 2 N 1018,2 30
20.04.2018 10:00:00 13,2 10,1 4 2 NNE 1018,7 22
20.04.2018 09:00:00 9,8 9,5 4 2 N 1019,3 6
20.04.2018 08:00:00 8,9 8,6 5 3 N 1019,4 8
20.04.2018 07:00:00 9,0 8,5 4 2 NNE 1019,4 2,7
20.04.2018 06:00:00 9,6 8,8 4 2 NNE 1019,4 -
20.04.2018 05:00:00 10,2 9,0 9 5 N 1019,8 9
20.04.2018 04:00:00 10,5 9,3 9 5 N 1019,8 11
20.04.2018 03:00:00 11,1 9,2 8 4 NNE 1020,0 13
20.04.2018 02:00:00 11,7 9,8 9 5 N 1020,0 20
20.04.2018 01:00:00 11,7 9,8 8 4 NNE 1020,3 19
20.04.2018 00:00:00 12,4 9,4 8 4 N 1020,4 29
19.04.2018 23:00:00 12,6 10,5 11 6 N 1020,3 15
19.04.2018 22:00:00 12,9 11,3 13 7 N 1020,3 10
19.04.2018 21:00:00 12,9 11,6 13 7 NNW 1020,2 7
19.04.2018 20:00:00 14,2 11,0 18 10 NNW 1020,1 10
19.04.2018 19:00:00 16,7 11,5 28 15 N 1019,2 23
19.04.2018 18:00:00 17,5 12,1 28 15 NNW 1018,9 18
19.04.2018 17:00:00 18,9 12,1 28 15 NNW 1018,7 25
19.04.2018 16:00:00 22,0 13,6 24 13 NNW 1018,3 22
19.04.2018 15:00:00 22,7 13,1 11 6 NNW 1018,3 23
19.04.2018 14:00:00 21,4 12,3 13 7 NW 1019,0 27

tt = Température de l'air
td = dewpoint
ff = Vitesse du vent
dd = Direction du vent
ppp = reduced air pressure
vv = visibility

stations d'obs. à proximité